Spokane, WA

1:44 PM PDT on August 29, 2016 (GMT -0700)
Spokane International

Weather History for KGEG - March, 2013

Change the Weather History Date:

Sunday, March 3, 2013

  Actual Average Record
Temperature  
Mean Temperature 37 °F 36 °F  
Max Temperature 44 °F 45 °F 63 °F (1905)
Min Temperature 30 °F 28 °F -10 °F (1891)
Degree Days  
Heating Degree Days 28 29  
Month to date heating degree days 66 87  
Since 1 July heating degree days 4603 4916  
Cooling Degree Days 0 0  
Month to date cooling degree days 0 0  
Year to date cooling degree days 0 0  
Moisture  
Dew Point 20 °F    
Average Humidity 55    
Maximum Humidity 76    
Minimum Humidity 33    
Precipitation  
Precipitation 0.00 in 0.06 in 0.69 in (1947)
Month to date precipitation 0.01 0.17  
Year to date precipitation 2.38 3.29  
Snow  
Snow 0.00 in 0.20 in 3.40 in (1916)
Month to date snowfall 0.0 0.5  
Since 1 July snowfall 42.6 40.8  
Snow Depth 0.00 in    
Sea Level Pressure  
Sea Level Pressure 30.03 in    
Wind  
Wind Speed 16 mph (West)    
Max Wind Speed 26 mph    
Max Gust Speed 33 mph    
Visibility 10 miles    
Events      
T = Trace of Precipitation, MM = Missing Value Source: NWS Daily Summary

Daily Weather History Graph

Daily Weather History Graph

Search for Another Location

Airport or City:

Trip Planner

Search our weather history database for the weather conditions in past years. The results will help you decide how hot, cold, wet, or windy it might be!

Date:

Astronomy

Mar. 03, 2013 Rise Set
Actual Time 6:26 AM PST 5:38 PM PST
Civil Twilight 5:55 AM PST 6:09 PM PST
Nautical Twilight 5:19 AM PST 6:45 PM PST
Astronomical Twilight 4:43 AM PST 7:20 PM PST
Moon No Moon Rise 9:16 AM PST (3/3)
Length of Visible Light 12h 14m
Length of Day
11h 12m
Waning Gibbous, 62% of the Moon is Illuminated
Mar 3
Waning Gibbous
Mar 4
Last Quarter
Mar 11
New
Mar 19
First Quarter
Mar 27
Full

Hourly Weather History & Observations

Time (PST) Temp. Windchill Dew Point Humidity Pressure Visibility Wind Dir Wind Speed Gust Speed Precip Events Conditions
12:53 AM 39.9 °F 30.5 °F 30.0 °F 68% 29.89 in 10.0 mi WSW 19.6 mph - N/A   Overcast
1:53 AM 37.0 °F 26.4 °F 23.0 °F 57% 29.90 in 10.0 mi WSW 20.7 mph 29.9 mph N/A   Partly Cloudy
2:53 AM 34.0 °F 22.4 °F 24.1 °F 67% 29.91 in 10.0 mi WSW 20.7 mph - N/A   Partly Cloudy
3:53 AM 33.1 °F 21.2 °F 21.0 °F 61% 29.93 in 10.0 mi WSW 20.7 mph 26.5 mph N/A   Partly Cloudy
4:53 AM 30.9 °F 18.7 °F 19.9 °F 64% 29.96 in 10.0 mi West 19.6 mph 27.6 mph N/A   Scattered Clouds
5:53 AM 30.0 °F 17.9 °F 21.0 °F 69% 29.98 in 10.0 mi West 18.4 mph - N/A   Scattered Clouds
6:53 AM 30.9 °F 18.4 °F 19.9 °F 64% 29.98 in 10.0 mi West 20.7 mph - N/A   Mostly Cloudy
7:53 AM 32.0 °F 19.8 °F 21.0 °F 64% 29.99 in 10.0 mi WSW 20.7 mph - N/A   Mostly Cloudy
8:53 AM 34.0 °F 22.1 °F 21.9 °F 61% 30.00 in 10.0 mi West 21.9 mph - N/A   Mostly Cloudy
9:53 AM 37.0 °F 26.7 °F 23.0 °F 57% 30.01 in 10.0 mi WSW 19.6 mph 26.5 mph N/A   Mostly Cloudy
10:53 AM 39.9 °F 30.0 °F 19.0 °F 43% 30.01 in 10.0 mi WSW 21.9 mph 28.8 mph N/A   Mostly Cloudy
11:53 AM 42.1 °F 33.9 °F 16.0 °F 35% 30.03 in 10.0 mi West 17.3 mph 31.1 mph N/A   Mostly Cloudy
12:53 PM 42.1 °F 34.5 °F 17.1 °F 37% 30.04 in 10.0 mi WSW 15.0 mph - N/A   Mostly Cloudy
1:53 PM 43.0 °F 34.8 °F 17.1 °F 35% 30.04 in 10.0 mi West 18.4 mph 26.5 mph N/A   Mostly Cloudy
2:53 PM 42.1 °F 33.6 °F 17.1 °F 37% 30.06 in 10.0 mi WSW 18.4 mph - N/A   Mostly Cloudy
3:53 PM 43.0 °F 34.5 °F 17.1 °F 35% 30.06 in 10.0 mi West 19.6 mph 27.6 mph N/A   Scattered Clouds
4:53 PM 42.1 °F 33.6 °F 16.0 °F 35% 30.07 in 10.0 mi West 18.4 mph - N/A   Scattered Clouds
5:53 PM 37.9 °F 30.9 °F 21.0 °F 51% 30.10 in 10.0 mi WSW 10.4 mph - N/A   Mostly Cloudy
6:53 PM 35.1 °F 30.1 °F 21.9 °F 59% 30.13 in 10.0 mi WSW 5.8 mph - N/A   Mostly Cloudy
7:53 PM 37.0 °F 31.6 °F 19.0 °F 48% 30.14 in 10.0 mi NNW 6.9 mph - N/A   Mostly Cloudy
8:53 PM 36.0 °F 31.1 °F 19.0 °F 50% 30.15 in 10.0 mi North 5.8 mph - N/A   Overcast
9:53 PM 36.0 °F 30.3 °F 19.0 °F 50% 30.16 in 10.0 mi NNW 6.9 mph - N/A   Overcast
10:53 PM 34.0 °F 29.8 °F 19.0 °F 54% 30.17 in 10.0 mi NNW 4.6 mph - N/A   Mostly Cloudy
11:53 PM 33.1 °F - 19.0 °F 56% 30.19 in 10.0 mi Calm Calm - N/A   Partly Cloudy